GW0092 Weather Reports


time (UTC)temp
C
wind
direction
speed
KPH
gust
KPH
rain 1hr
cm
rain 24hr
cm
rain mn
cm
humidity
%
barometer
mb
20260831220128 23 338 1.6 4.8 0.13 0.46 0.46 99 1019.5
20260831214603 23 283 0.0 4.8 0.25 0.46 0.46 99 1019.4
20260831213106 23 339 1.6 3.2 0.25 0.43 0.43 98 1019.3
20260831211604 24 255 0.0 1.6 0.33 0.41 0.41 99 1019.3
20260831210103 25 0 0.0 0.0 0.33 0.33 0.33 98 1019.3
20260831204604 25 0 0.0 0.0 0.20 0.20 0.20 98 1019.4
20260831203135 25 0 0.0 1.6 0.18 0.18 0.18 96 1019.4
20260831201606 26 0 0.0 1.6 0.08 0.08 0.08 94 1018.8
20260831200106 27 0 0.0 1.6 0.00 0.00 0.00 87 1018.9
20260831194611 28 0 0.0 4.8 0.00 0.00 0.00 84 1018.8
20260831193102 28 153 0.0 4.8 0.00 0.00 0.00 86 1018.6
20260831191605 27 127 0.0 4.8 0.00 0.00 0.00 87 1018.7
20260831190138 28 0 0.0 3.2 0.00 0.00 0.00 85 1018.7
20260831184603 28 0 0.0 4.8 0.00 0.00 0.00 85 1018.7
20260831183059 28 162 0.0 4.8 0.00 0.00 0.00 87 1018.8
20260831181606 28 0 0.0 4.8 0.00 0.00 0.00 87 1019.1
20260831174602 27 115 1.6 3.2 0.00 0.00 0.00 87 1019.2
20260831173115 28 248 0.0 4.8 0.00 0.00 0.00 85 1019.3
20260831171607 28 249 0.0 8.0 0.00 0.00 0.00 87 1019.3
20260831170110 28 158 0.0 4.8 0.00 0.00 0.00 87 1019.2
20260831164604 28 146 1.6 4.8 0.00 0.00 0.00 85 1019.2
20260831163105 28 0 1.6 4.8 0.00 0.00 0.00 88 1019.6
20260831161607 28 152 1.6 4.8 0.00 0.00 0.00 86 1019.8
20260831160135 28 141 0.0 6.4 0.00 0.00 0.00 86 1019.6
20260831154628 28 158 1.6 6.4 0.00 0.00 0.00 87 1019.7
20260831153132 28 125 1.6 6.4 0.00 0.00 0.00 88 1019.8
20260831151602 28 93 0.0 3.2 0.00 0.00 0.00 89 1019.7
20260831150055 27 0 0.0 3.2 0.00 0.00 0.00 88 1019.8
20260831144607 27 127 0.0 4.8 0.00 0.00 0.00 90 1019.5
20260831143102 27 125 0.0 4.8 0.00 0.00 0.00 92 1019.7
20260831141601 26 0 0.0 1.6 0.00 0.00 0.00 94 1019.6
20260831140108 26 260 0.0 4.8 0.00 0.00 0.00 97 1019.5
20260831134609 25 300 1.6 6.4 0.00 0.00 0.00 98 1019.7
20260831133103 25 285 1.6 4.8 0.00 0.00 0.00 98 1019.8
20260831131604 25 0 0.0 0.0 0.00 0.00 0.00 99 1019.9
20260831130137 24 0 0.0 0.0 0.00 0.00 0.00 100 1019.9
20260831124604 24 0 0.0 1.6 0.00 0.00 0.00 100 1019.7
20260831123106 23 360 0.0 4.8 0.00 0.00 0.00 100 1019.5
20260831121556 23 354 0.0 1.6 0.00 0.00 0.00 100 1019.3
20260831120146 23 0 0.0 1.6 0.00 0.00 0.00 100 1019.3
20260831114603 22 0 0.0 0.0 0.00 0.00 0.00 100 1019.3
20260831113102 22 0 0.0 0.0 0.00 0.00 0.00 100 1019.3
20260831111559 22 0 0.0 0.0 0.00 0.00 0.00 100 1019.3
20260831110107 22 0 0.0 0.0 0.00 0.00 0.00 100 1019.3
20260831104600 22 0 0.0 0.0 0.00 0.00 0.00 100 1019.0
20260831103104 22 0 0.0 0.0 0.00 0.00 0.00 100 1018.8
20260831101621 22 0 0.0 1.6 0.00 0.00 0.00 100 1018.7
20260831100107 22 0 0.0 0.0 0.00 0.00 0.00 100 1018.6
20260831094609 22 0 0.0 0.0 0.00 0.00 0.00 100 1018.7
20260831093101 22 0 0.0 1.6 0.00 0.00 0.00 100 1018.7
20260831091559 22 0 0.0 0.0 0.00 0.00 0.00 100 1018.5
20260831090118 22 0 0.0 0.0 0.00 0.00 0.00 100 1018.5
20260831084558 22 0 0.0 0.0 0.00 0.00 0.00 99 1018.6
20260831083247 22 0 0.0 0.0 0.00 0.00 0.00 99 1018.4
20260831081605 22 0 0.0 0.0 0.00 0.00 0.00 99 1018.4
20260831080100 22 0 0.0 0.0 0.00 0.00 0.00 99 1018.6
20260831074557 22 0 0.0 0.0 0.00 0.00 0.00 99 1018.7
20260831073109 22 0 0.0 0.0 0.00 0.00 0.00 99 1018.9
20260831071608 22 0 0.0 0.0 0.00 0.00 0.00 99 1019.0
20260831070134 22 0 0.0 0.0 0.00 0.00 0.00 99 1019.1
20260831064604 22 0 0.0 0.0 0.00 0.00 0.00 99 1019.0
20260831063107 22 0 0.0 0.0 0.00 0.00 0.00 99 1019.1
20260831061610 22 0 0.0 0.0 0.00 0.00 0.00 99 1019.1
20260831060111 22 0 0.0 0.0 0.00 0.00 0.00 99 1019.1
20260831054554 22 0 0.0 0.0 0.00 0.00 0.00 99 1019.2
20260831053105 23 0 0.0 0.0 0.00 0.00 0.00 99 1019.1
20260831051618 23 0 0.0 0.0 0.00 0.00 0.00 98 1019.2
20260831050106 23 0 0.0 0.0 0.00 0.00 0.00 98 1019.2
20260831044604 23 0 0.0 1.6 0.00 0.00 0.00 98 1019.2
20260831043108 23 0 0.0 0.0 0.00 0.00 0.00 98 1019.2
20260831041559 23 0 0.0 0.0 0.00 0.00 0.00 98 1019.3
20260831040106 23 0 0.0 0.0 0.00 0.00 0.00 97 1019.2
20260831034556 23 0 0.0 0.0 0.00 0.00 0.00 97 1019.4
20260831033103 23 0 0.0 3.2 0.00 0.00 0.00 97 1019.7
20260831031558 23 0 0.0 1.6 0.00 0.00 0.00 97 1019.8
20260831024616 23 141 0.0 6.4 0.00 0.00 0.00 96 1019.9
20260831023055 23 0 0.0 0.0 0.00 0.00 0.00 96 1020.0
20260831021604 23 108 1.6 3.2 0.00 0.00 0.00 96 1020.1
20260831020103 23 0 0.0 0.0 0.00 0.00 0.00 96 1020.2
20260831014602 23 0 0.0 0.0 0.00 0.00 0.00 96 1020.2
20260831013056 23 0 0.0 1.6 0.00 0.00 0.00 96 1020.3
20260831011604 23 0 0.0 1.6 0.00 0.00 0.00 96 1020.3
20260831010130 23 0 0.0 1.6 0.00 0.00 0.00 96 1020.3
20260831004613 23 0 0.0 1.6 0.00 0.00 0.00 96 1020.1
20260831003110 23 0 0.0 3.2 0.00 0.00 0.00 95 1020.0
20260831001609 23 0 0.0 1.6 0.00 0.00 0.00 95 1020.0
20260831000057 23 0 0.0 1.6 0.00 0.00 0.00 94 1020.1
20260830234605 24 0 0.0 1.6 0.00 0.00 0.00 94 1020.1
20260830233104 24 0 0.0 1.6 0.00 0.00 0.00 93 1020.0
20260830231600 25 0 0.0 3.2 0.00 0.00 0.00 92 1019.8
20260830230109 25 148 0.0 3.2 0.00 0.00 0.00 91 1020.1
20260830224609 25 139 1.6 3.2 0.00 0.00 0.00 91 1020.1
20260830223104 25 127 1.6 6.4 0.00 0.00 0.00 90 1020.1
20260830221600 25 153 1.6 4.8 0.00 0.00 0.00 90 1020.2